N7JP Weather Reports


time (UTC)temp
C
wind
direction
speed
KPH
gust
KPH
rain 1hr
cm
rain 24hr
cm
rain mn
cm
humidity
%
barometer
mb
20260505153340 12 172 3.2 12.9 0.00 0.00 0.00 89 1010.4
20260505151841 12 208 3.2 12.9 0.00 0.00 0.00 92 1010.4
20260505150339 12 211 4.8 12.9 0.00 0.00 0.00 89 1010.2
20260505140306 11 143 4.8 11.3 0.00 0.00 0.00 90 1009.7
20260505130220 11 129 1.6 12.9 0.00 0.00 0.00 90 1009.0
20260505124720 11 210 1.6 9.7 0.00 0.00 0.00 90 1008.8
20260505123155 11 134 3.2 12.9 0.00 0.00 0.00 90 1008.7
20260505121629 11 149 3.2 11.3 0.00 0.00 0.00 90 1008.7
20260505120129 11 142 4.8 11.3 0.00 0.00 0.00 90 1008.6
20260505114609 11 168 3.2 9.7 0.00 0.00 0.00 90 1008.4
20260505113111 11 157 4.8 11.3 0.00 0.00 0.00 90 1008.4
20260505111550 11 126 4.8 12.9 0.00 0.00 0.00 90 1008.3
20260505101503 11 119 3.2 11.3 0.00 0.00 0.00 90 1007.9
20260505095940 11 127 3.2 11.3 0.00 0.00 0.00 91 1007.8
20260505094442 11 155 3.2 9.7 0.00 0.00 0.00 90 1007.6
20260505092917 11 127 3.2 11.3 0.00 0.00 0.00 90 1007.6
20260505091420 11 177 6.4 14.5 0.00 0.00 0.00 90 1007.4
20260505085918 11 98 4.8 14.5 0.00 0.00 0.00 90 1007.3
20260505084357 11 137 4.8 12.9 0.00 0.00 0.00 90 1007.3
20260505082848 12 140 3.2 14.5 0.00 0.00 0.00 90 1007.0
20260505081330 12 137 1.6 11.3 0.00 0.00 0.00 89 1007.0
20260505075823 12 147 3.2 12.9 0.00 0.00 0.00 89 1007.0
20260505074320 12 156 3.2 12.9 0.00 0.00 0.00 89 1006.9
20260505072820 12 159 1.6 11.3 0.00 0.00 0.00 88 1006.6
20260505071303 12 156 3.2 9.7 0.00 0.00 0.00 89 1006.5
20260505065745 11 112 3.2 6.4 0.00 0.00 0.00 89 1006.3
20260505064218 11 47 4.8 9.7 0.00 0.00 0.00 89 1006.2
20260505062656 11 128 1.6 4.8 0.00 0.00 0.00 88 1006.4
20260505061154 11 128 1.6 4.8 0.00 0.00 0.00 87 1006.1
20260505055654 11 128 1.6 3.2 0.00 0.00 0.00 87 1005.8
20260505054150 12 128 1.6 4.8 0.00 0.00 0.00 86 1005.6
20260505052622 12 128 1.6 6.4 0.00 0.00 0.00 85 1005.5
20260505051118 13 119 1.6 6.4 0.00 0.00 0.00 82 1005.5
20260505041045 15 72 6.4 14.5 0.00 0.00 0.00 75 1004.7
20260505035524 15 66 4.8 14.5 0.00 0.00 0.00 73 1004.6
20260505034018 16 49 3.2 9.7 0.00 0.00 0.00 73 1004.5
20260505032529 16 48 0.0 4.8 0.00 0.00 0.00 73 1004.3
20260505031001 17 25 0.0 9.7 0.00 0.00 0.00 72 1004.1
20260505025500 17 59 4.8 9.7 0.00 0.00 0.00 67 1004.0
20260505023955 18 55 3.2 8.0 0.00 0.00 0.00 67 1003.9
20260505022452 18 53 1.6 8.0 0.00 0.00 0.00 65 1003.9
20260505020954 19 317 4.8 12.9 0.00 0.00 0.00 65 1004.0
20260505015427 19 0 0.0 4.8 0.00 0.00 0.00 63 1004.0
20260505013920 19 42 1.6 6.4 0.00 0.00 0.00 62 1004.2
20260505012422 20 33 3.2 11.3 0.00 0.00 0.00 58 1004.3
20260505010852 20 301 3.2 11.3 0.00 0.00 0.00 55 1004.4
20260505005352 21 51 3.2 8.0 0.00 0.00 0.00 55 1004.5
20260505003851 22 307 4.8 14.5 0.00 0.00 0.00 53 1004.4
20260505002342 21 52 4.8 16.1 0.00 0.00 0.00 51 1004.4
20260505000825 22 306 4.8 12.9 0.00 0.00 0.00 52 1004.4
20260504235323 22 57 3.2 8.0 0.00 0.00 0.00 50 1004.4
20260504233804 23 342 4.8 9.7 0.00 0.00 0.00 50 1004.4
20260504232304 23 296 3.2 6.4 0.00 0.00 0.00 50 1004.4
20260504230739 22 296 3.2 6.4 0.00 0.00 0.00 52 1004.4
20260504225238 22 298 3.2 6.4 0.00 0.00 0.00 55 1004.5
20260504223736 22 298 4.8 8.0 0.00 0.00 0.00 54 1004.5
20260504222210 22 310 3.2 8.0 0.00 0.00 0.00 52 1004.7
20260504220711 23 296 1.6 4.8 0.00 0.00 0.00 52 1004.9
20260504215210 22 301 3.2 11.3 0.00 0.00 0.00 54 1005.0
20260504213641 21 266 1.6 6.4 0.00 0.00 0.00 61 1005.1
20260504212140 21 302 4.8 8.0 0.00 0.00 0.00 61 1005.2
20260504210640 22 253 3.2 9.7 0.00 0.00 0.00 55 1005.3
20260504205130 22 288 4.8 9.7 0.00 0.00 0.00 58 1005.4
20260504203612 22 255 3.2 6.4 0.00 0.00 0.00 58 1005.3
20260504202111 22 281 3.2 4.8 0.00 0.00 0.00 55 1005.3
20260504200550 22 282 1.6 6.4 0.00 0.00 0.00 57 1005.4
20260504195050 22 290 1.6 6.4 0.00 0.00 0.00 56 1005.5
20260504193539 22 270 1.6 6.4 0.00 0.00 0.00 62 1005.4
20260504192030 21 298 1.6 6.4 0.00 0.00 0.00 53 1005.5
20260504190504 21 227 3.2 8.0 0.00 0.00 0.00 65 1005.5
20260504185002 20 269 3.2 4.8 0.00 0.00 0.00 57 1005.6
20260504183440 20 242 3.2 6.4 0.00 0.00 0.00 62 1005.7
20260504181940 20 272 1.6 4.8 0.00 0.00 0.00 62 1005.8
20260504180421 20 271 1.6 6.4 0.00 0.00 0.00 62 1005.7
20260504174922 20 232 1.6 6.4 0.00 0.00 0.00 64 1005.6
20260504173419 19 277 1.6 4.8 0.00 0.00 0.00 65 1005.6
20260504171917 18 290 1.6 4.8 0.00 0.00 0.00 68 1005.7
20260504170416 18 290 0.0 4.8 0.00 0.00 0.00 65 1005.6
20260504160318 17 322 0.0 0.0 0.00 0.00 0.00 76 1005.5